Regional Weather Roundup
Issued by NWS

Home | Current Version | Previous Version | Text Only | Print | Product List | Glossary Off
Versions: 1 2 3 4 5 6 7 8 9 10 11 12 13 14 15 16 17 18 19 20 21 22 23 24 25 26 27 28 29 30 31 32 33 34 35 36 37 38 39 40 41 42 43 44 45 46 47 48 49 50

000
ASUS43 KLOT 231408
RWRIL

ILLINOIS REGIONAL WEATHER ROUNDUP
NATIONAL WEATHER SERVICE CHICAGO/ROMEOVILLE IL
900 AM CDT WED AUG 23 2017

NOTE: "FAIR" INDICATES FEW OR NO CLOUDS BELOW 12,000 FEET WITH NO
SIGNIFICANT WEATHER AND/OR OBSTRUCTIONS TO VISIBILITY.

* THESE STATIONS ARE NOT UNDER NWS QUALITY CONTROL. THEY ALSO MAY NOT
  REPORT WEATHER SUCH AS PRECIPITATION OR FOG.

ILZ001-002-007-009-015-016-024-231500-
NORTHWEST ILLINOIS

CITY           SKY/WX    TMP DP  RH WIND       PRES   REMARKS
MOLINE         SUNNY     66  51  58 NW8       30.10R
STERLING*      SUNNY     65  55  70 NW6       30.09R
SAVANNA*       SUNNY     64  53  67 NW6       30.08S
$$

ILZ003-004-008-010-011-017-018-231500-
NORTH CENTRAL ILLINOIS

CITY           SKY/WX    TMP DP  RH WIND       PRES   REMARKS
ROCKFORD       SUNNY     64  52  64 NW7       30.07F
FREEPORT*      SUNNY     63  53  69 NW6       30.09S
ROCHELLE*      SUNNY     63  54  71 NW6       30.08S
DE KALB*       SUNNY     62  54  74 NW6       30.07S
PERU*          SUNNY     62  54  73 NW8       30.08S
$$

ILZ005-006-012>014-019>023-231500-
NORTHEAST ILLINOIS

CITY           SKY/WX    TMP DP  RH WIND       PRES   REMARKS
CHICAGO-OHARE  SUNNY     68  50  52 NW10      30.04R
CHICAGO-MIDWAY SUNNY     68  51  54 NW9       30.03F
AURORA         SUNNY     63  56  78 NW9       30.06S
LANSING*       SUNNY     68  55  62 NW7       30.04S
JOLIET*        SUNNY     66  55  67 N6        30.06S
WAUKEGAN       SUNNY     65  54  67 VRB6      30.02S
DUPAGE AIRPORT SUNNY     66  54  65 NW10      30.05R
KANKAKEE*      SUNNY     64  56  76 NW6       30.07S
WHEELING       SUNNY     67  54  63 NW9       30.05R
MORRIS*        SUNNY     64  55  71 NW3       30.05S
ROMEOVILLE*    SUNNY     65  53  65 NW6       30.05S
NORTHERLY ISL    N/A     69  49  48 W12         N/A
$$

LMZ740>746-231500-
SOUTHERN LAKE MICHIGAN

STATION/POSITION SKY/WX   TEMP    WIND        PRES    VSBY  WAVE
                          AIR SEA DIR/SP/G                  HT/PER
                          (F)     (DEG/KT/KT) (MB)    (MI)  (FT/S)
SOUTHERN BUOY              66 71  330/ 17/ 19 1015.5          4/ 4
WILMETTE HARBOR            65 73  310/ 12/ 16   N/A           3/ 3
HARRISON CRIB              67     310/  9/ 11   N/A
CALUMET HARBOR             68     280/  5/  9 1016.4S
BURNS HARBOR               69     310/ 14/ 18 1017.3S
MICHIGAN CITY              69     290/ 16/ 18   N/A
MICHIGAN CITY 6N           69 73  320/ 14/ 17   N/A           4/ 6
ST. JOSEPH                 69 73  340/ 14/ 17 1016.3          5/ 5
$$

ILZ025>027-034>036-040-047-049-050-058-095>099-231500-
WEST-CENTRAL ILLINOIS

CITY           SKY/WX    TMP DP  RH WIND       PRES   REMARKS
QUINCY         SUNNY     64  56  75 NW7       30.12S
GALESBURG*     SUNNY     62  56  80 NW6       30.12S
MACOMB*        SUNNY     64  56  77 NW6       30.14R
JACKSONVILLE*  SUNNY     64  56  76 NW3       30.11S
PITTSFIELD*    SUNNY     67  57  72 NW3       30.13S
$$

ILZ028>032-037-038-041>044-048-051>054-059>061-231500-
CENTRAL ILLINOIS

CITY           SKY/WX    TMP DP  RH WIND       PRES   REMARKS
PONTIAC        SUNNY     62  59  88 CALM      30.08S
BLOOMINGTON    SUNNY     66  54  65 NW9       30.10R
DECATUR        SUNNY     68  56  65 N6        30.09R
PEORIA         SUNNY     65  54  67 N5        30.10R
LACON*         SUNNY     63  55  75 CALM      30.08S
LINCOLN*       SUNNY     64  58  79 N5        30.10R
SPRINGFIELD    SUNNY     67  58  72 N6        30.11R
TAYLORVILLE    SUNNY     64  57  78 N3        30.11R
$$

ILZ033-039-045-046-055>057-062-063-231500-
EAST-CENTRAL ILLINOIS

CITY           SKY/WX    TMP DP  RH WIND       PRES   REMARKS
CHAMPAIGN      SUNNY     66  56  70 N5        30.08R
RANTOUL*       SUNNY     67  58  73 NW6       30.08S
MATTOON        SUNNY     65  58  78 NW3       30.08R
PARIS*         SUNNY     66  57  73 NW5       30.09R
$$

ILZ079-100>102-231500-
SOUTHWEST ILLINOIS

CITY           SKY/WX    TMP DP  RH WIND       PRES   REMARKS
ALTON          SUNNY     64  57  77 NW7       30.12R
BELLEVILLE     SUNNY     67  56  68 N9        30.12R
CAHOKIA*       SUNNY     70  55  59 N7        30.12R
SPARTA*        SUNNY     66  57  72 N6        30.12R
$$

ILZ064>066-069>071-074>076-080>082-084>086-088>090-092>094-231500-
SOUTH-CENTRAL ILLINOIS

CITY           SKY/WX    TMP DP  RH WIND       PRES   REMARKS
CARBONDALE     CLOUDY    66  60  81 N5        30.10S
CAIRO*         MOSUNNY   70  61  73 N6        30.09R
EFFINGHAM*     SUNNY     67  59  76 NW5       30.11R
MARION         MOSUNNY   68  61  77 N7        30.10R
MT. VERNON       N/A     67  58  72 VRB5      30.10R
CENTRALIA*     SUNNY     67  59  75 N3        30.10R
SALEM*         SUNNY     67  58  74 N3        30.10S
METROPOLIS*    SUNNY     69  61  76 N6        30.09R
$$

ILZ067-068-072-073-078-083-087-091-231500-
SOUTHEAST ILLINOIS

CITY           SKY/WX    TMP DP  RH WIND       PRES   REMARKS
LAWRENCEVILLE  SUNNY     68  58  70 N6        30.08R
FLORA*         SUNNY     67  60  76 N6        30.10R
FAIRFIELD*     SUNNY     67  57  71 CALM      30.08S
HARRISBURG*    MOSUNNY   67  59  75 N5        30.09S
ROBINSON*      SUNNY     65  58  76 N5        30.09R
CARMI*         SUNNY     66  61  82 N5        30.07S
$$

ABBREVIATIONS USED IN REMARKS
   TC - TEMPERATURE IN CELSIUS
  WCI - WIND CHILL INDEX
   HX - HEAT INDEX
  VSB - VISIBILITY
$$





USA.gov is the U.S. government's official web portal to all federal, state and local government web resources and services.